Wetterdaten: Freitag, 05.03.2010
Datum Zeit Temp. A. Feuchte A. Luftdruck Regen Wind Richtung Richtung Sonnenschein UV Solar Windben
05.03.2010 00:00 -2,2 C 63 % 1022,5 hPa 0,0 mm 0,0 km/h (0 Bft) N 0 0 min 0 UV-I 0 W/m 0,0 km/h (0 Bft)
05.03.2010 00:10 -2,3 C 63 % 1022,5 hPa 0,0 mm 0,0 km/h (0 Bft) N 0 0 min 0 UV-I 0 W/m 0,0 km/h (0 Bft)
05.03.2010 00:20 -2,3 C 64 % 1022,5 hPa 0,0 mm 0,0 km/h (0 Bft) N-NW 337 0 min 0 UV-I 0 W/m 3,2 km/h (1 Bft)
05.03.2010 00:30 -2,2 C 65 % 1022,5 hPa 0,0 mm 0,0 km/h (0 Bft) N-NW 337 0 min 0 UV-I 0 W/m 1,6 km/h (1 Bft)
05.03.2010 00:40 -2,2 C 66 % 1022,6 hPa 0,0 mm 0,0 km/h (0 Bft) N 0 0 min 0 UV-I 0 W/m 0,0 km/h (0 Bft)
05.03.2010 00:50 -2,2 C 67 % 1022,7 hPa 0,0 mm 0,0 km/h (0 Bft) N-NW 337 0 min 0 UV-I 0 W/m 1,6 km/h (1 Bft)
05.03.2010 01:00 -2,2 C 68 % 1022,7 hPa 0,0 mm 0,0 km/h (0 Bft) N-NW 337 0 min 0 UV-I 0 W/m 1,6 km/h (1 Bft)
05.03.2010 01:10 -2,1 C 68 % 1022,8 hPa 0,0 mm 0,0 km/h (0 Bft) N-NW 337 0 min 0 UV-I 0 W/m 3,2 km/h (1 Bft)
05.03.2010 01:20 -1,9 C 69 % 1022,9 hPa 0,0 mm 1,6 km/h (1 Bft) N-NW 337 0 min 0 UV-I 0 W/m 9,7 km/h (2 Bft)
05.03.2010 01:30 -1,9 C 69 % 1023,1 hPa 0,0 mm 1,6 km/h (1 Bft) W-NW 292 0 min 0 UV-I 0 W/m 6,4 km/h (2 Bft)
05.03.2010 01:40 -1,8 C 69 % 1023,1 hPa 0,0 mm 1,6 km/h (1 Bft) NW 315 0 min 0 UV-I 0 W/m 8,0 km/h (2 Bft)
05.03.2010 01:50 -1,8 C 70 % 1023,1 hPa 0,0 mm 1,6 km/h (1 Bft) W 270 0 min 0 UV-I 0 W/m 6,4 km/h (2 Bft)
05.03.2010 02:00 -1,8 C 71 % 1023,2 hPa 0,0 mm 1,6 km/h (1 Bft) W-NW 292 0 min 0 UV-I 0 W/m 6,4 km/h (2 Bft)
05.03.2010 02:10 -1,8 C 71 % 1023,2 hPa 0,0 mm 0,0 km/h (0 Bft) W-NW 292 0 min 0 UV-I 0 W/m 4,8 km/h (1 Bft)
05.03.2010 02:20 -2,0 C 72 % 1023,2 hPa 0,0 mm 1,6 km/h (1 Bft) W-NW 292 0 min 0 UV-I 0 W/m 4,8 km/h (1 Bft)
05.03.2010 02:30 -2,1 C 74 % 1023,2 hPa 0,0 mm 1,6 km/h (1 Bft) W-NW 292 0 min 0 UV-I 0 W/m 4,8 km/h (1 Bft)
05.03.2010 02:40 -2,2 C 75 % 1023,3 hPa 0,0 mm 1,6 km/h (1 Bft) W-NW 292 0 min 0 UV-I 0 W/m 4,8 km/h (1 Bft)
05.03.2010 02:50 -2,3 C 76 % 1023,3 hPa 0,0 mm 1,6 km/h (1 Bft) W-NW 292 0 min 0 UV-I 0 W/m 4,8 km/h (1 Bft)
05.03.2010 03:00 -2,4 C 77 % 1023,3 hPa 0,0 mm 0,0 km/h (0 Bft) W-NW 292 0 min 0 UV-I 0 W/m 4,8 km/h (1 Bft)
05.03.2010 03:10 -2,6 C 78 % 1023,3 hPa 0,0 mm 0,0 km/h (0 Bft) W-NW 292 0 min 0 UV-I 0 W/m 4,8 km/h (1 Bft)
05.03.2010 03:20 -2,7 C 78 % 1023,3 hPa 0,0 mm 0,0 km/h (0 Bft) W-NW 292 0 min 0 UV-I 0 W/m 4,8 km/h (1 Bft)
05.03.2010 03:30 -2,8 C 79 % 1023,4 hPa 0,0 mm 0,0 km/h (0 Bft) W-NW 292 0 min 0 UV-I 0 W/m 4,8 km/h (1 Bft)
05.03.2010 03:40 -2,9 C 80 % 1023,4 hPa 0,0 mm 0,0 km/h (0 Bft) W-NW 292 0 min 0 UV-I 0 W/m 4,8 km/h (1 Bft)
05.03.2010 03:50 -3,1 C 81 % 1023,4 hPa 0,0 mm 0,0 km/h (0 Bft) W-NW 292 0 min 0 UV-I 0 W/m 1,6 km/h (1 Bft)
05.03.2010 04:00 -3,2 C 82 % 1023,4 hPa 0,0 mm 0,0 km/h (0 Bft) W-NW 292 0 min 0 UV-I 0 W/m 1,6 km/h (1 Bft)
05.03.2010 04:10 -3,2 C 82 % 1023,5 hPa 0,0 mm 0,0 km/h (0 Bft) W-NW 292 0 min 0 UV-I 0 W/m 3,2 km/h (1 Bft)
05.03.2010 04:20 -3,3 C 83 % 1023,5 hPa 0,0 mm 0,0 km/h (0 Bft) W-NW 292 0 min 0 UV-I 0 W/m 4,8 km/h (1 Bft)
05.03.2010 04:30 -3,3 C 83 % 1023,5 hPa 0,0 mm 0,0 km/h (0 Bft) W-NW 292 0 min 0 UV-I 0 W/m 6,4 km/h (2 Bft)
05.03.2010 04:40 -3,3 C 84 % 1023,7 hPa 0,0 mm 0,0 km/h (0 Bft) W-NW 292 0 min 0 UV-I 0 W/m 3,2 km/h (1 Bft)
05.03.2010 04:50 -3,4 C 84 % 1023,7 hPa 0,0 mm 0,0 km/h (0 Bft) W-NW 292 0 min 0 UV-I 0 W/m 4,8 km/h (1 Bft)
05.03.2010 05:00 -3,4 C 85 % 1023,8 hPa 0,0 mm 0,0 km/h (0 Bft) W-NW 292 0 min 0 UV-I 0 W/m 4,8 km/h (1 Bft)
05.03.2010 05:10 -3,4 C 85 % 1023,9 hPa 0,0 mm 1,6 km/h (1 Bft) W-NW 292 0 min 0 UV-I 0 W/m 6,4 km/h (2 Bft)
05.03.2010 05:20 -3,4 C 85 % 1023,9 hPa 0,0 mm 1,6 km/h (1 Bft) W-NW 292 0 min 0 UV-I 0 W/m 4,8 km/h (1 Bft)
05.03.2010 05:30 -3,5 C 85 % 1024,0 hPa 0,0 mm 0,0 km/h (0 Bft) W-NW 292 0 min 0 UV-I 0 W/m 4,8 km/h (1 Bft)
05.03.2010 05:40 -3,6 C 85 % 1024,1 hPa 0,0 mm 0,0 km/h (0 Bft) W-NW 292 0 min 0 UV-I 0 W/m 3,2 km/h (1 Bft)
05.03.2010 05:50 -3,6 C 85 % 1024,1 hPa 0,0 mm 0,0 km/h (0 Bft) W-NW 292 0 min 0 UV-I 0 W/m 4,8 km/h (1 Bft)
05.03.2010 06:00 -3,7 C 85 % 1024,2 hPa 0,0 mm 0,0 km/h (0 Bft) W-NW 292 0 min 0 UV-I 0 W/m 1,6 km/h (1 Bft)
05.03.2010 06:10 -3,9 C 85 % 1024,4 hPa 0,0 mm 0,0 km/h (0 Bft) W-NW 292 0 min 0 UV-I 0 W/m 3,2 km/h (1 Bft)
05.03.2010 06:20 -3,9 C 86 % 1024,4 hPa 0,0 mm 0,0 km/h (0 Bft) W-NW 292 0 min 0 UV-I 0 W/m 3,2 km/h (1 Bft)
05.03.2010 06:30 -4,0 C 86 % 1024,4 hPa 0,0 mm 0,0 km/h (0 Bft) W-NW 292 0 min 0 UV-I 0 W/m 4,8 km/h (1 Bft)
05.03.2010 06:40 -3,9 C 86 % 1024,4 hPa 0,0 mm 1,6 km/h (1 Bft) W-NW 292 0 min 0 UV-I 0 W/m 6,4 km/h (2 Bft)
05.03.2010 06:50 -3,8 C 86 % 1024,4 hPa 0,0 mm 1,6 km/h (1 Bft) W 270 0 min 0 UV-I 0 W/m 6,4 km/h (2 Bft)
05.03.2010 07:00 -3,8 C 86 % 1024,5 hPa 0,0 mm 1,6 km/h (1 Bft) W 270 0 min 0 UV-I 0 W/m 6,4 km/h (2 Bft)
05.03.2010 07:10 -3,8 C 86 % 1024,6 hPa 0,0 mm 0,0 km/h (0 Bft) W 270 0 min 0 UV-I 7 W/m 4,8 km/h (1 Bft)
05.03.2010 07:20 -3,9 C 86 % 1024,7 hPa 0,0 mm 0,0 km/h (0 Bft) W 270 0 min 0 UV-I 11 W/m 1,6 km/h (1 Bft)
05.03.2010 07:30 -4,0 C 86 % 1024,7 hPa 0,0 mm 0,0 km/h (0 Bft) W 270 0 min 0 UV-I 18 W/m 3,2 km/h (1 Bft)
05.03.2010 07:40 -4,1 C 86 % 1024,8 hPa 0,0 mm 0,0 km/h (0 Bft) W 270 0 min 0 UV-I 42 W/m 3,2 km/h (1 Bft)
05.03.2010 07:50 -4,1 C 87 % 1024,8 hPa 0,0 mm 0,0 km/h (0 Bft) W 270 10 min 0 UV-I 70 W/m 3,2 km/h (1 Bft)
05.03.2010 08:00 -3,7 C 87 % 1024,9 hPa 0,0 mm 0,9 km/h (0 Bft) W 274 10 min 0 UV-I 97 W/m 3,2 km/h (1 Bft)
05.03.2010 08:10 -3,6 C 87 % 1024,9 hPa 0,0 mm 1,6 km/h (1 Bft) W 270 10 min 0 UV-I 132 W/m 6,4 km/h (2 Bft)
05.03.2010 08:20 -3,3 C 86 % 1024,9 hPa 0,0 mm 1,6 km/h (1 Bft) W 270 10 min 0 UV-I 160 W/m 11,3 km/h (2 Bft)
05.03.2010 08:30 -3,1 C 85 % 1024,9 hPa 0,0 mm 1,6 km/h (1 Bft) W 270 10 min 0 UV-I 183 W/m 6,4 km/h (2 Bft)
05.03.2010 08:40 -2,8 C 84 % 1025,0 hPa 0,0 mm 0,0 km/h (0 Bft) W 270 10 min 1 UV-I 209 W/m 3,2 km/h (1 Bft)
05.03.2010 08:50 -2,7 C 83 % 1025,1 hPa 0,0 mm 1,6 km/h (1 Bft) W 270 10 min 1 UV-I 237 W/m 6,4 km/h (2 Bft)
05.03.2010 09:00 -2,4 C 81 % 1025,0 hPa 0,0 mm 0,0 km/h (0 Bft) W 270 10 min 1 UV-I 272 W/m 4,8 km/h (1 Bft)
05.03.2010 09:10 -2,2 C 79 % 1025,1 hPa 0,0 mm 1,6 km/h (1 Bft) W 270 10 min 1 UV-I 301 W/m 6,4 km/h (2 Bft)
05.03.2010 09:20 -1,9 C 78 % 1025,1 hPa 0,0 mm 1,6 km/h (1 Bft) W 270 10 min 1 UV-I 329 W/m 6,4 km/h (2 Bft)
05.03.2010 09:30 -1,6 C 76 % 1025,1 hPa 0,0 mm 1,6 km/h (1 Bft) W-SW 247 10 min 1 UV-I 339 W/m 6,4 km/h (2 Bft)
05.03.2010 09:40 -1,3 C 76 % 1025,2 hPa 0,0 mm 3,2 km/h (1 Bft) NW 315 10 min 1 UV-I 367 W/m 9,7 km/h (2 Bft)
05.03.2010 09:50 -1,2 C 75 % 1025,3 hPa 0,0 mm 1,6 km/h (1 Bft) W 270 10 min 1 UV-I 378 W/m 11,3 km/h (2 Bft)
05.03.2010 10:00 -1,1 C 73 % 1025,2 hPa 0,0 mm 3,2 km/h (1 Bft) SW 225 10 min 1 UV-I 399 W/m 9,7 km/h (2 Bft)
05.03.2010 10:10 -0,9 C 70 % 1025,2 hPa 0,0 mm 1,6 km/h (1 Bft) W 270 10 min 1 UV-I 446 W/m 6,4 km/h (2 Bft)
05.03.2010 10:20 -0,6 C 67 % 1025,2 hPa 0,0 mm 1,6 km/h (1 Bft) W-SW 247 10 min 1 UV-I 485 W/m 8,0 km/h (2 Bft)
05.03.2010 10:30 -0,3 C 64 % 1025,1 hPa 0,0 mm 1,6 km/h (1 Bft) W-SW 247 10 min 2 UV-I 598 W/m 8,0 km/h (2 Bft)
05.03.2010 10:40 0,0 C 62 % 1025,1 hPa 0,0 mm 3,2 km/h (1 Bft) W 270 10 min 2 UV-I 652 W/m 8,0 km/h (2 Bft)
05.03.2010 10:50 0,1 C 61 % 1025,0 hPa 0,0 mm 3,2 km/h (1 Bft) W 270 10 min 2 UV-I 603 W/m 8,0 km/h (2 Bft)
05.03.2010 11:00 0,2 C 49 % 1024,8 hPa 0,0 mm 4,8 km/h (1 Bft) W 270 10 min 2 UV-I 575 W/m 11,3 km/h (2 Bft)
05.03.2010 11:10 0,7 C 49 % 1024,8 hPa 0,0 mm 3,2 km/h (1 Bft) W-SW 247 10 min 2 UV-I 563 W/m 11,3 km/h (2 Bft)
05.03.2010 11:20 0,8 C 50 % 1024,8 hPa 0,0 mm 4,8 km/h (1 Bft) W 270 10 min 2 UV-I 577 W/m 16,1 km/h (3 Bft)
05.03.2010 11:30 1,0 C 50 % 1024,7 hPa 0,0 mm 6,4 km/h (2 Bft) W 270 10 min 2 UV-I 598 W/m 17,7 km/h (3 Bft)
05.03.2010 11:40 1,1 C 51 % 1024,7 hPa 0,0 mm 6,4 km/h (2 Bft) W 270 10 min 2 UV-I 608 W/m 14,5 km/h (3 Bft)
05.03.2010 11:50 0,8 C 50 % 1024,7 hPa 0,0 mm 8,0 km/h (2 Bft) W 270 10 min 2 UV-I 613 W/m 22,5 km/h (4 Bft)
05.03.2010 12:00 1,2 C 52 % 1024,6 hPa 0,0 mm 6,4 km/h (2 Bft) W 270 10 min 2 UV-I 631 W/m 22,5 km/h (4 Bft)
05.03.2010 12:10 1,4 C 53 % 1024,5 hPa 0,0 mm 6,4 km/h (2 Bft) W 270 10 min 2 UV-I 675 W/m 19,3 km/h (3 Bft)
05.03.2010 12:20 1,4 C 53 % 1024,4 hPa 0,0 mm 4,8 km/h (1 Bft) W 270 10 min 2 UV-I 705 W/m 17,7 km/h (3 Bft)
05.03.2010 12:30 1,5 C 53 % 1024,3 hPa 0,0 mm 6,4 km/h (2 Bft) W-SW 247 10 min 2 UV-I 640 W/m 22,5 km/h (4 Bft)
05.03.2010 12:40 1,7 C 53 % 1024,2 hPa 0,0 mm 6,4 km/h (2 Bft) W 270 10 min 2 UV-I 677 W/m 19,3 km/h (3 Bft)
05.03.2010 12:50 1,8 C 55 % 1024,1 hPa 0,0 mm 6,4 km/h (2 Bft) W 270 10 min 2 UV-I 715 W/m 17,7 km/h (3 Bft)
05.03.2010 13:00 1,3 C 58 % 1023,9 hPa 0,0 mm 8,0 km/h (2 Bft) W-SW 247 0 min 2 UV-I 295 W/m 19,3 km/h (3 Bft)
05.03.2010 13:10 1,3 C 59 % 1023,8 hPa 0,0 mm 6,4 km/h (2 Bft) SW 225 0 min 1 UV-I 285 W/m 17,7 km/h (3 Bft)
05.03.2010 13:20 1,3 C 58 % 1023,6 hPa 0,0 mm 6,4 km/h (2 Bft) W 270 10 min 2 UV-I 427 W/m 22,5 km/h (4 Bft)
05.03.2010 13:30 1,6 C 57 % 1023,5 hPa 0,0 mm 9,7 km/h (2 Bft) W-SW 247 0 min 2 UV-I 223 W/m 24,1 km/h (4 Bft)
05.03.2010 13:40 1,7 C 55 % 1023,4 hPa 0,0 mm 9,7 km/h (2 Bft) W-SW 247 10 min 2 UV-I 689 W/m 22,5 km/h (4 Bft)
05.03.2010 13:50 2,1 C 56 % 1023,1 hPa 0,0 mm 6,4 km/h (2 Bft) W-SW 247 10 min 2 UV-I 621 W/m 19,3 km/h (3 Bft)
05.03.2010 14:00 2,2 C 56 % 1023,1 hPa 0,0 mm 9,7 km/h (2 Bft) W 270 10 min 2 UV-I 603 W/m 20,9 km/h (4 Bft)
05.03.2010 14:10 2,4 C 56 % 1022,9 hPa 0,0 mm 6,4 km/h (2 Bft) W 270 10 min 2 UV-I 582 W/m 20,9 km/h (4 Bft)
05.03.2010 14:20 2,6 C 59 % 1022,9 hPa 0,0 mm 6,4 km/h (2 Bft) W 270 10 min 2 UV-I 613 W/m 20,9 km/h (4 Bft)
05.03.2010 14:30 2,2 C 61 % 1022,7 hPa 0,0 mm 8,0 km/h (2 Bft) W-SW 247 10 min 2 UV-I 531 W/m 22,5 km/h (4 Bft)
05.03.2010 14:40 2,2 C 62 % 1022,6 hPa 0,0 mm 8,0 km/h (2 Bft) W-SW 247 10 min 2 UV-I 598 W/m 17,7 km/h (3 Bft)
05.03.2010 14:50 2,2 C 62 % 1022,5 hPa 0,0 mm 6,4 km/h (2 Bft) W 270 10 min 1 UV-I 483 W/m 19,3 km/h (3 Bft)
05.03.2010 15:00 1,9 C 64 % 1022,3 hPa 0,0 mm 8,0 km/h (2 Bft) W-SW 247 10 min 1 UV-I 271 W/m 22,5 km/h (4 Bft)
05.03.2010 15:10 1,9 C 65 % 1022,2 hPa 0,0 mm 9,7 km/h (2 Bft) W-SW 247 10 min 1 UV-I 271 W/m 20,9 km/h (4 Bft)
05.03.2010 15:20 2,0 C 66 % 1022,1 hPa 0,0 mm 8,0 km/h (2 Bft) SW 225 0 min 1 UV-I 169 W/m 17,7 km/h (3 Bft)
05.03.2010 15:30 1,8 C 67 % 1022,0 hPa 0,0 mm 9,7 km/h (2 Bft) W 270 0 min 1 UV-I 153 W/m 19,3 km/h (3 Bft)
05.03.2010 15:40 1,8 C 67 % 1021,9 hPa 0,0 mm 6,4 km/h (2 Bft) W 270 0 min 1 UV-I 156 W/m 16,1 km/h (3 Bft)
05.03.2010 15:50 1,9 C 68 % 1021,7 hPa 0,0 mm 4,8 km/h (1 Bft) W 270 10 min 1 UV-I 192 W/m 16,1 km/h (3 Bft)
05.03.2010 16:00 1,7 C 69 % 1021,6 hPa 0,0 mm 8,9 km/h (2 Bft) W-SW 245 0 min 0 UV-I 96 W/m 19,3 km/h (3 Bft)
05.03.2010 16:10 1,7 C 70 % 1021,4 hPa 0,0 mm 4,8 km/h (1 Bft) W-SW 247 0 min 0 UV-I 83 W/m 14,5 km/h (3 Bft)
05.03.2010 16:20 1,6 C 70 % 1021,1 hPa 0,0 mm 6,4 km/h (2 Bft) W 270 0 min 0 UV-I 83 W/m 17,7 km/h (3 Bft)
05.03.2010 16:30 1,6 C 71 % 1020,8 hPa 0,0 mm 4,8 km/h (1 Bft) W-SW 247 0 min 0 UV-I 74 W/m 17,7 km/h (3 Bft)
05.03.2010 16:40 1,6 C 71 % 1020,6 hPa 0,0 mm 3,2 km/h (1 Bft) W-SW 247 0 min 0 UV-I 56 W/m 14,5 km/h (3 Bft)
05.03.2010 16:50 1,6 C 71 % 1020,4 hPa 0,0 mm 3,2 km/h (1 Bft) S-SW 202 0 min 0 UV-I 33 W/m 11,3 km/h (2 Bft)
05.03.2010 17:00 1,6 C 72 % 1020,1 hPa 0,0 mm 1,6 km/h (1 Bft) SW 225 0 min 0 UV-I 25 W/m 8,0 km/h (2 Bft)
05.03.2010 17:10 1,6 C 72 % 1019,8 hPa 0,0 mm 3,2 km/h (1 Bft) SW 225 0 min 0 UV-I 28 W/m 9,7 km/h (2 Bft)
05.03.2010 17:20 1,6 C 72 % 1019,6 hPa 0,0 mm 3,2 km/h (1 Bft) SW 225 0 min 0 UV-I 26 W/m 9,7 km/h (2 Bft)
05.03.2010 17:30 1,7 C 72 % 1019,4 hPa 0,0 mm 3,2 km/h (1 Bft) S-SW 202 0 min 0 UV-I 23 W/m 9,7 km/h (2 Bft)
05.03.2010 17:40 1,7 C 72 % 1019,2 hPa 0,0 mm 3,2 km/h (1 Bft) SW 225 0 min 0 UV-I 12 W/m 9,7 km/h (2 Bft)
05.03.2010 17:50 1,8 C 72 % 1019,1 hPa 0,0 mm 1,6 km/h (1 Bft) SW 225 0 min 0 UV-I 5 W/m 9,7 km/h (2 Bft)
05.03.2010 18:00 1,9 C 73 % 1018,9 hPa 0,0 mm 4,8 km/h (1 Bft) SW 225 0 min 0 UV-I 0 W/m 14,5 km/h (3 Bft)
05.03.2010 18:10 1,9 C 73 % 1018,8 hPa 0,0 mm 6,4 km/h (2 Bft) W-SW 247 0 min 0 UV-I 0 W/m 16,1 km/h (3 Bft)
05.03.2010 18:20 2,0 C 74 % 1018,7 hPa 0,0 mm 8,0 km/h (2 Bft) W-SW 247 0 min 0 UV-I 0 W/m 25,7 km/h (4 Bft)
05.03.2010 18:30 1,9 C 76 % 1018,7 hPa 0,0 mm 8,0 km/h (2 Bft) W-SW 247 0 min 0 UV-I 0 W/m 22,5 km/h (4 Bft)
05.03.2010 18:40 1,7 C 78 % 1018,5 hPa 0,0 mm 9,7 km/h (2 Bft) W-SW 247 0 min 0 UV-I 0 W/m 19,3 km/h (3 Bft)
05.03.2010 18:50 1,4 C 80 % 1018,3 hPa 0,0 mm 6,4 km/h (2 Bft) SW 225 0 min 0 UV-I 0 W/m 17,7 km/h (3 Bft)
05.03.2010 19:00 1,2 C 82 % 1018,0 hPa 0,0 mm 6,4 km/h (2 Bft) SW 225 0 min 0 UV-I 0 W/m 22,5 km/h (4 Bft)
05.03.2010 19:10 1,0 C 84 % 1017,6 hPa 0,0 mm 6,4 km/h (2 Bft) SW 225 0 min 0 UV-I 0 W/m 19,3 km/h (3 Bft)
05.03.2010 19:20 0,8 C 86 % 1017,3 hPa 0,0 mm 4,8 km/h (1 Bft) SW 225 0 min 0 UV-I 0 W/m 17,7 km/h (3 Bft)
05.03.2010 19:30 0,7 C 87 % 1017,0 hPa 0,0 mm 3,2 km/h (1 Bft) SW 225 0 min 0 UV-I 0 W/m 9,7 km/h (2 Bft)
05.03.2010 19:40 0,6 C 87 % 1016,7 hPa 0,0 mm 6,4 km/h (2 Bft) W-SW 247 0 min 0 UV-I 0 W/m 17,7 km/h (3 Bft)
05.03.2010 19:50 0,4 C 88 % 1016,5 hPa 0,0 mm 8,0 km/h (2 Bft) W-SW 247 0 min 0 UV-I 0 W/m 20,9 km/h (4 Bft)
05.03.2010 20:00 0,3 C 88 % 1016,2 hPa 0,0 mm 6,4 km/h (2 Bft) W-SW 247 0 min 0 UV-I 0 W/m 22,5 km/h (4 Bft)
05.03.2010 20:10 0,3 C 89 % 1015,7 hPa 0,0 mm 6,4 km/h (2 Bft) W-SW 247 0 min 0 UV-I 0 W/m 19,3 km/h (3 Bft)
05.03.2010 20:20 0,2 C 89 % 1015,4 hPa 0,0 mm 6,4 km/h (2 Bft) SW 225 0 min 0 UV-I 0 W/m 16,1 km/h (3 Bft)
05.03.2010 20:30 0,2 C 89 % 1015,0 hPa 0,0 mm 4,8 km/h (1 Bft) SW 225 0 min 0 UV-I 0 W/m 14,5 km/h (3 Bft)
05.03.2010 20:40 0,2 C 90 % 1014,6 hPa 0,0 mm 4,8 km/h (1 Bft) S-SW 202 0 min 0 UV-I 0 W/m 16,1 km/h (3 Bft)
05.03.2010 20:50 0,2 C 90 % 1014,1 hPa 0,0 mm 4,8 km/h (1 Bft) S-SW 202 0 min 0 UV-I 0 W/m 16,1 km/h (3 Bft)
05.03.2010 21:00 0,1 C 90 % 1013,9 hPa 0,0 mm 4,8 km/h (1 Bft) SW 225 0 min 0 UV-I 0 W/m 19,3 km/h (3 Bft)
05.03.2010 21:10 0,2 C 91 % 1013,5 hPa 0,0 mm 8,0 km/h (2 Bft) SW 225 0 min 0 UV-I 0 W/m 19,3 km/h (3 Bft)
05.03.2010 21:20 0,3 C 91 % 1013,4 hPa 0,0 mm 6,4 km/h (2 Bft) SW 225 0 min 0 UV-I 0 W/m 20,9 km/h (4 Bft)
05.03.2010 21:30 0,4 C 91 % 1013,1 hPa 0,0 mm 6,4 km/h (2 Bft) SW 225 0 min 0 UV-I 0 W/m 16,1 km/h (3 Bft)
05.03.2010 21:40 0,4 C 91 % 1012,9 hPa 0,0 mm 9,7 km/h (2 Bft) W-SW 247 0 min 0 UV-I 0 W/m 20,9 km/h (4 Bft)
05.03.2010 21:50 0,5 C 91 % 1012,4 hPa 0,0 mm 8,0 km/h (2 Bft) W-SW 247 0 min 0 UV-I 0 W/m 20,9 km/h (4 Bft)
05.03.2010 22:00 0,5 C 91 % 1012,3 hPa 0,0 mm 11,3 km/h (2 Bft) W-SW 247 0 min 0 UV-I 0 W/m 22,5 km/h (4 Bft)
05.03.2010 22:10 0,5 C 91 % 1012,0 hPa 0,0 mm 12,9 km/h (3 Bft) W-SW 247 0 min 0 UV-I 0 W/m 27,4 km/h (4 Bft)
05.03.2010 22:20 0,6 C 92 % 1012,2 hPa 0,0 mm 12,9 km/h (3 Bft) SW 225 0 min 0 UV-I 0 W/m 33,8 km/h (5 Bft)
05.03.2010 22:30 0,6 C 92 % 1012,0 hPa 0,0 mm 9,7 km/h (2 Bft) W 270 0 min 0 UV-I 0 W/m 24,1 km/h (4 Bft)
05.03.2010 22:40 0,6 C 92 % 1012,0 hPa 0,0 mm 6,4 km/h (2 Bft) W 270 0 min 0 UV-I 0 W/m 19,3 km/h (3 Bft)
05.03.2010 22:50 0,6 C 92 % 1011,9 hPa 0,0 mm 6,4 km/h (2 Bft) W 270 0 min 0 UV-I 0 W/m 19,3 km/h (3 Bft)
05.03.2010 23:00 0,6 C 92 % 1012,0 hPa 0,0 mm 8,0 km/h (2 Bft) W 270 0 min 0 UV-I 0 W/m 25,7 km/h (4 Bft)
05.03.2010 23:10 0,7 C 92 % 1011,9 hPa 0,0 mm 6,4 km/h (2 Bft) W 270 0 min 0 UV-I 0 W/m 16,1 km/h (3 Bft)
05.03.2010 23:20 0,7 C 92 % 1012,0 hPa 0,0 mm 6,5 km/h (2 Bft) W-NW 290 0 min 0 UV-I 0 W/m 17,7 km/h (3 Bft)
05.03.2010 23:30 0,7 C 92 % 1012,0 hPa 0,0 mm 6,4 km/h (2 Bft) W-NW 287 0 min 0 UV-I 0 W/m 22,5 km/h (4 Bft)
05.03.2010 23:40 0,6 C 92 % 1011,9 hPa 0,0 mm 3,6 km/h (1 Bft) W 277 0 min 0 UV-I 0 W/m 11,3 km/h (2 Bft)
05.03.2010 23:50 0,6 C 92 % 1011,8 hPa 0,0 mm 2,0 km/h (1 Bft) W-NW 299 0 min 0 UV-I 0 W/m 6,4 km/h (2 Bft)
_ Min-Zeit 07:30 11:00 23:50 - 00:00 - - - - - 00:00
Minimum _ -4,1 C 49 % 1011,8 hPa - 0,0 km/h (0 Bft) - - - - - 0,0 km/h (0 Bft)
_ Max-Zeit 14:20 22:20 09:50 00:00 22:10 - - 07:50 12:10 12:50 22:20
Maximum _ 2,7 C 92 % 1025,3 hPa 0,0 mm 12,9 km/h
W-SW (3 Bft)
- - 10 min 2 UV-I 715 W/m 33,8 km/h
SW (5 Bft)
Durchschnitt _ -0,6 C 75 % 1021,3 hPa #0,0 mm 3,9 km/h (1 Bft) W - #7:10 h 1 UV-I 333 W/m 12,1 km/h (2 Bft)